Location: Saint-Usage
(47.1052°N, 5.2587°E)
Time: 03:07:56
(UTC+01:00)

NOAA 19 - Pass Details

Date: 28 November 2021
Orbit: 841 x 860 km, 99.2° (Epoch: 17 January)

Event Time Altitude Azimuth Distance (km) Brightness Sun altitude
Rises 17:25:09 0° 108° (ESE) 3,392 7.9 -5.7°
Reaches altitude 10° 17:28:30 10° 87° (E) 2,463 7.0 -6.2°
Maximum altitude 17:31:28 15° 53° (NE) 2,126 6.7 -6.6°
Drops below altitude 10° 17:34:27 10° 20° (NNE) 2,473 7.2 -7.1°
Sets 17:37:50 0° 359° (N) 3,416 8.1 -7.6°
